Hourly Data Report for November 25, 2014

All times are specified in Local Standard Time (LST). Add 1 hour to adjust for Daylight Saving Time where and when it is observed.

Metadata including Station Name, Province, Latitude, Longitude, Elevation, Climate ID, WMO ID, TC ID
GRANBY
QUEBEC
Latitude: 45°22'22.000" N Longitude: 72°46'26.000" W Elevation: 86.00 m
Climate ID: 7022802 WMO ID: TC ID: MGB
Hourly Data Report for November 25, 2014
Temp Definition
°C

Dew Point Temp Definition
°C

Rel Hum Definition
%

Wind Dir Definition
10's deg
Wind Spd Definition
km/h

Visibility Definition
km

Stn Press Definition
kPa

Hmdx Definition

Wind Chill Definition

Weather Definition

00:00 12.5 7.5 72 23 15 98.86 LegendNANA
01:00 10.1 4.7 69 26 20 98.99 LegendNANA
02:00 8.7 3.3 69 25 28 99.21 LegendNANA
03:00 7.7 1.7 66 25 34 99.35 LegendNANA
04:00 7.2 1.4 67 25 22 99.41 LegendNANA
05:00 7.6 1.0 63 24 22 99.47 LegendNANA
06:00 7.9 1.2 63 23 16 99.53 LegendNANA
07:00 7.4 0.9 64 24 18 99.63 LegendNANA
08:00 6.5 0.1 64 23 14 99.71 LegendNANA
09:00 6.6 0.9 67 23 11 99.78 LegendNANA
10:00 7.4 0.5 61 24 17 99.82 LegendNANA
11:00 6.8 1.4 68 24 13 99.87 LegendNANA
12:00 7.7 1.5 65 24 21 99.89 LegendNANA
13:00 7.2 0.7 63 23 18 99.86 LegendNANA
14:00 7.2 0.2 61 23 16 99.88 LegendNANA
15:00 7.2 -0.9 56 23 19 99.97 LegendNANA
16:00 6.7 -2.1 53 22 16 100.06 LegendNANA
17:00 6.1 -1.5 58 23 11 100.13 LegendNANA
18:00 5.7 -0.7 64 26 14 100.25 LegendNANA
19:00 5.5 -0.3 66 24 21 100.30 LegendNANA
20:00 5.2 -0.2 68 23 19 100.39 LegendNANA
21:00 4.7 -0.6 68 23 19 100.47 LegendNANA
22:00 4.4 -2.5 61 24 25 100.57 LegendNANA
23:00 3.6 -3.0 62 24 23 100.72 LegendNANA

Notes on Data Quality.

Legend
  • E = Estimated
  • M = Missing
  • NA = Not Available
  • ‡ = Partner data that is not subject to review by the National Climate Archives